Tracking 19854 objects as of 22-Sep-2019
HD Live streaming from Space Station
objects crossing your sky now

COSMOS 520

Track COSMOS 520 now!
COSMOS 520 is classified as:


NORAD ID: 6192
Int'l Code: 1972-072A
Perigee: 8,494.7 km
Apogee: 31,745.2 km
Inclination: 73.2 °
Period: 715.2 minutes
Semi major axis: 26490 km
RCS: 12.5618 m2 (large)
Launch date: September 19, 1972
Source: Commonwealth of Independent States (former USSR) (CIS)
Launch site: PLESETSK MISSILE AND SPACE COMPLEX (PKMTR)
aabbcc
Your satellite tracking list
Your tracking list is empty




NASA's NSSDC Master Catalog

Two Line Element Set (TLE):
1  6192U 72072A   19263.50505795 +.00000058 +00000-0 +00000-0 0  9996
2  6192 073.1748 308.8383 4388381 266.6725 205.8512 02.01351858345628
Source of the keplerian elements: AFSPC